Nejran, Saudi Arabia

5:54 AM AST on February 22, 2017 (GMT +0300)
Najran

Weather History for OENG - January, 2013

Change the Weather History Date:

Wednesday, January 30, 2013

  Actual Average Record
Temperature  
Mean Temperature 68 °F -  
Max Temperature 80 °F 81 °F 95 °F (2011)
Min Temperature 57 °F 53 °F 41 °F (2015)
Cooling Degree Days 4    
Growing Degree Days 18 (Base 50)    
Moisture  
Dew Point 42 °F    
Average Humidity 36    
Maximum Humidity 52    
Minimum Humidity 19    
Precipitation  
Precipitation 0.00 in - - ()
Sea Level Pressure  
Sea Level Pressure 30.02 in    
Wind  
Wind Speed 3 mph ()    
Max Wind Speed 12 mph    
Max Gust Speed -    
Visibility 2.7 miles    
Events      
Averages and records for this station are not official NWS values.
T = Trace of Precipitation, MM = Missing Value Source: Averaged Metar Reports

Daily Weather History Graph

Daily Weather History Graph

Search for Another Location

Airport or City:

Trip Planner

Search our weather history database for the weather conditions in past years. The results will help you decide how hot, cold, wet, or windy it might be!

Date:

Astronomy

Jan. 30, 2013 Rise Set
Actual Time 6:35 AM AST 5:56 PM AST
Civil Twilight 6:12 AM AST 6:19 PM AST
Nautical Twilight 5:46 AM AST 6:45 PM AST
Astronomical Twilight 5:20 AM AST 7:11 PM AST
Moon 8:51 PM AST (1/30) 8:26 AM AST (1/30)
Length of Visible Light 12h 06m
Length of Day
11h 21m
Waning Gibbous, 90% of the Moon is Illuminated
Jan 30
Waning Gibbous
Feb 3
Last Quarter
Feb 10
New
Feb 17
First Quarter
Feb 25
Full

Hourly Weather History & Observations

Time (AST) Temp. Dew Point Humidity Pressure Visibility Wind Dir Wind Speed Gust Speed Precip Events Conditions
12:00 AM 69 °F 37 °F 20%  in 6 mi NNE 2.3 mph - -  
12:00 AM 69.8 °F 37.4 °F 31% 30.04 in - NNE 2.3 mph - N/A   Clear
1:00 AM 69.8 °F 39.2 °F 33% 30.01 in - North 2.3 mph - N/A   Clear
2:00 AM 66.2 °F 37.4 °F 35% 30.01 in - Calm Calm - N/A   Clear
3:00 AM 64 °F 37 °F 26%  in 6 mi Calm Calm - -  
3:00 AM 64.4 °F 37.4 °F 37% 30.01 in - Calm Calm - N/A   Clear
4:00 AM 64.4 °F 37.4 °F 37% 30.01 in - SW 2.3 mph - N/A   Clear
5:00 AM 62.6 °F 39.2 °F 42% 30.01 in - Calm Calm - N/A   Clear
6:00 AM 61 °F 41 °F 36%  in 3 mi NNE 6.9 mph - -   Widespread Dust
6:00 AM 60.8 °F 41.0 °F 48% 30.04 in 3.1 mi NNE 6.9 mph - N/A   Clear
7:00 AM 60.8 °F 41.0 °F 48% 30.06 in 1.2 mi NNE 11.5 mph - N/A   Unknown
8:00 AM 66.2 °F 48.2 °F 52% 30.12 in 1.2 mi NNE 4.6 mph - N/A   Unknown
9:00 AM 70 °F 48 °F 35%  in 2 mi NNE 4.6 mph - -   Widespread Dust
9:00 AM 69.8 °F 48.2 °F 46% 30.12 in 1.9 mi NNE 4.6 mph - N/A   Unknown
10:00 AM 69.8 °F 48.2 °F 46% 30.12 in 1.9 mi NNE 4.6 mph - N/A   Unknown
11:00 AM 69.8 °F 48.2 °F 46% 30.09 in 2.5 mi Calm Calm - N/A   Unknown
12:00 PM 70 °F 48 °F 35%  in 2 mi Calm Calm - -   Widespread Dust
12:00 PM 69.8 °F 48.2 °F 46% 30.06 in 2.5 mi Calm Calm - N/A   Unknown
1:00 PM 75.2 °F 46.4 °F 36% 30.01 in 2.5 mi South 6.9 mph - N/A   Unknown
2:00 PM 75.2 °F 46.4 °F 36% 29.98 in 3.1 mi East 6.9 mph - N/A   Unknown
3:00 PM 79 °F 45 °F 19%  in 3 mi ENE 4.6 mph - -   Widespread Dust
3:00 PM 78.8 °F 44.6 °F 30% 29.95 in 3.1 mi ENE 4.6 mph - N/A   Unknown
4:00 PM 78.8 °F 42.8 °F 28% 29.95 in 2.8 mi East 6.9 mph - N/A   Clear
5:00 PM 77.0 °F 41.0 °F 28% 29.92 in 2.8 mi ESE 11.5 mph - N/A   Clear
6:00 PM 75 °F 41 °F 19%  in 2 mi ESE 9.2 mph - -   Widespread Dust
6:00 PM 75.2 °F 41.0 °F 29% 29.95 in 2.5 mi ESE 9.2 mph - N/A   Clear
7:00 PM 73.4 °F 41.0 °F 31% 29.98 in 2.5 mi East 6.9 mph - N/A   Clear
8:00 PM 69.8 °F 41.0 °F 35% 30.01 in 2.5 mi East 4.6 mph - N/A   Clear
9:00 PM 69 °F 41 °F 25%  in 2 mi East 2.3 mph - -   Widespread Dust
9:00 PM 69.8 °F 41.0 °F 35% 30.01 in 2.5 mi East 2.3 mph - N/A   Clear
10:00 PM 66.2 °F 42.8 °F 43% 30.01 in 2.5 mi Calm Calm - N/A   Clear
11:00 PM 66.2 °F 42.8 °F 43% 30.01 in 3.1 mi Calm Calm - N/A   Clear